Location: �clusier
(49.9361°N, 2.7869°E)
Time: 20:58:26
(UTC+00:00)

Cosmos 2322 - Pass Details

Date: 16 June 2021
Orbit: 839 x 856 km, 71.0° (Epoch: 01 August)

Event Time Altitude Azimuth Distance (km) Brightness Sun altitude
Exits shadow 22:03:07 10° 194° (SSW) 2,438 5.6 -13.0°
Maximum altitude 22:08:38 64° 114° (ESE) 929 3.7 -13.3°
Drops below altitude 10° 22:14:14 10° 34° (NE) 2,469 6.6 -13.7°
Sets 22:16:42 0° 31° (NNE) 3,410 7.4 -13.8°
